| time (UTC) | temp F | wind direction | speed knots | gust knots | rain 1hr in | rain 24hr in | rain mn in | humidity % | barometer mb |
| 20260505113002 | 82 | 65 | 1.7 | 13.0 | 0.00 | 0.05 | 0.00 | 83 | 1019.2 |
| 20260505111559 | 81 | 84 | 2.6 | 8.7 | 0.00 | 0.05 | 0.00 | 84 | 1019.1 |
| 20260505110118 | 80 | 82 | 3.5 | 8.7 | 0.00 | 0.05 | 0.00 | 85 | 1018.9 |
| 20260505101555 | 79 | 86 | 1.7 | 7.0 | 0.00 | 0.05 | 0.00 | 85 | 1018.6 |
| 20260505100051 | 79 | 98 | 0.0 | 4.3 | 0.00 | 0.05 | 0.00 | 85 | 1018.4 |
| 20260505094606 | 79 | 140 | 0.0 | 8.7 | 0.00 | 0.05 | 0.00 | 85 | 1018.4 |
| 20260505093055 | 79 | 96 | 0.0 | 3.5 | 0.00 | 0.05 | 0.00 | 85 | 1018.2 |
| 20260505091547 | 79 | 132 | 0.0 | 5.2 | 0.00 | 0.05 | 0.00 | 85 | 1018.1 |
| 20260505090048 | 79 | 140 | 0.0 | 7.0 | 0.00 | 0.05 | 0.00 | 84 | 1017.8 |
| 20260505084553 | 79 | 155 | 0.0 | 3.5 | 0.00 | 0.05 | 0.00 | 84 | 1017.7 |
| 20260505083056 | 79 | 166 | 0.0 | 6.1 | 0.00 | 0.05 | 0.00 | 84 | 1017.5 |
| 20260505081555 | 79 | 225 | 1.7 | 7.0 | 0.00 | 0.05 | 0.00 | 84 | 1017.5 |
| 20260505080049 | 79 | 154 | 0.0 | 7.0 | 0.00 | 0.05 | 0.00 | 84 | 1017.4 |
| 20260505074542 | 80 | 120 | 0.0 | 8.7 | 0.00 | 0.05 | 0.00 | 84 | 1017.2 |
| 20260505073044 | 80 | 146 | 0.9 | 7.0 | 0.00 | 0.05 | 0.00 | 83 | 1017.2 |
| 20260505071547 | 80 | 75 | 0.9 | 7.8 | 0.00 | 0.05 | 0.00 | 83 | 1017.3 |
| 20260505070038 | 80 | 128 | 0.9 | 7.8 | 0.00 | 0.05 | 0.00 | 83 | 1017.3 |
| 20260505064537 | 80 | 72 | 1.7 | 7.8 | 0.00 | 0.05 | 0.00 | 83 | 1017.4 |
| 20260505063034 | 80 | 121 | 2.6 | 11.3 | 0.00 | 0.05 | 0.00 | 83 | 1017.5 |
| 20260505061534 | 80 | 82 | 3.5 | 8.7 | 0.00 | 0.05 | 0.00 | 84 | 1017.5 |
| 20260505060036 | 80 | 86 | 5.2 | 10.4 | 0.00 | 0.05 | 0.00 | 84 | 1017.6 |
| 20260505054530 | 80 | 184 | 2.6 | 12.2 | 0.00 | 0.05 | 0.00 | 84 | 1017.6 |
| 20260505053028 | 80 | 119 | 2.6 | 13.0 | 0.00 | 0.05 | 0.00 | 84 | 1017.8 |
| 20260505051527 | 80 | 143 | 3.5 | 13.0 | 0.00 | 0.05 | 0.00 | 84 | 1017.9 |
| 20260505041520 | 80 | 138 | 1.7 | 9.6 | 0.00 | 0.05 | 0.00 | 85 | 1018.3 |
| 20260505040018 | 79 | 188 | 0.0 | 6.1 | 0.00 | 0.05 | 0.00 | 86 | 1018.4 |
| 20260505034516 | 79 | 186 | 2.6 | 9.6 | 0.00 | 0.05 | 0.05 | 85 | 1018.4 |
| 20260505033022 | 80 | 227 | 0.0 | 6.1 | 0.00 | 0.05 | 0.05 | 85 | 1018.5 |
| 20260505031517 | 80 | 169 | 0.0 | 6.1 | 0.01 | 0.05 | 0.05 | 85 | 1018.8 |
| 20260505030015 | 80 | 178 | 1.7 | 6.1 | 0.01 | 0.05 | 0.05 | 84 | 1018.7 |
| 20260505024514 | 81 | 90 | 1.7 | 8.7 | 0.01 | 0.05 | 0.05 | 83 | 1018.8 |
| 20260505023014 | 81 | 219 | 0.9 | 5.2 | 0.00 | 0.04 | 0.04 | 82 | 1018.8 |
| 20260505021515 | 81 | 209 | 0.0 | 6.1 | 0.00 | 0.04 | 0.04 | 82 | 1018.8 |
| 20260505020017 | 81 | 237 | 0.0 | 7.0 | 0.00 | 0.04 | 0.04 | 81 | 1018.8 |
| 20260505014518 | 81 | 217 | 2.6 | 6.1 | 0.00 | 0.04 | 0.04 | 81 | 1018.7 |
| 20260505013011 | 81 | 129 | 0.0 | 2.6 | 0.00 | 0.04 | 0.04 | 81 | 1018.6 |
| 20260505011512 | 81 | 188 | 0.9 | 5.2 | 0.00 | 0.04 | 0.04 | 81 | 1018.7 |
| 20260505004515 | 81 | 217 | 1.7 | 7.8 | 0.00 | 0.04 | 0.04 | 80 | 1018.4 |
| 20260505003008 | 81 | 196 | 3.5 | 8.7 | 0.00 | 0.04 | 0.04 | 80 | 1017.9 |
| 20260505001509 | 81 | 211 | 1.7 | 8.7 | 0.00 | 0.04 | 0.04 | 80 | 1017.8 |
| 20260505000011 | 82 | 157 | 1.7 | 6.1 | 0.00 | 0.04 | 0.04 | 81 | 1017.6 |
| 20260504234507 | 82 | 223 | 0.9 | 7.8 | 0.00 | 0.04 | 0.04 | 80 | 1017.5 |
| 20260504233007 | 82 | 150 | 0.9 | 5.2 | 0.00 | 0.04 | 0.04 | 80 | 1017.4 |
| 20260504231506 | 82 | 175 | 0.9 | 6.1 | 0.00 | 0.04 | 0.04 | 80 | 1017.2 |
| 20260504230006 | 82 | 144 | 1.7 | 7.0 | 0.00 | 0.04 | 0.04 | 80 | 1017.2 |
| 20260504224505 | 82 | 146 | 2.6 | 7.0 | 0.00 | 0.04 | 0.04 | 80 | 1017.2 |
| 20260504223005 | 82 | 227 | 1.7 | 5.2 | 0.00 | 0.04 | 0.04 | 80 | 1016.9 |
| 20260504221505 | 82 | 207 | 0.0 | 8.7 | 0.00 | 0.04 | 0.04 | 80 | 1016.9 |
| 20260504220004 | 83 | 243 | 0.9 | 6.1 | 0.00 | 0.04 | 0.04 | 80 | 1016.6 |
| 20260504214503 | 83 | 159 | 2.6 | 8.7 | 0.00 | 0.04 | 0.04 | 79 | 1016.4 |
| 20260504213004 | 83 | 196 | 4.3 | 10.4 | 0.00 | 0.04 | 0.04 | 79 | 1016.1 |
| 20260504211506 | 84 | 134 | 1.7 | 7.8 | 0.00 | 0.04 | 0.04 | 78 | 1016.0 |
| 20260504210001 | 85 | 157 | 4.3 | 10.4 | 0.00 | 0.04 | 0.04 | 76 | 1016.0 |
| 20260504204625 | 86 | 84 | 3.5 | 11.3 | 0.00 | 0.04 | 0.04 | 76 | 1016.0 |
| 20260504203135 | 86 | 83 | 2.6 | 10.4 | 0.00 | 0.04 | 0.04 | 76 | 1015.9 |
| 20260504201559 | 87 | 69 | 4.3 | 8.7 | 0.00 | 0.04 | 0.04 | 77 | 1016.0 |
| 20260504200058 | 87 | 76 | 5.2 | 11.3 | 0.00 | 0.04 | 0.04 | 76 | 1016.1 |
| 20260504194556 | 89 | 44 | 4.3 | 11.3 | 0.00 | 0.04 | 0.04 | 75 | 1016.1 |
| 20260504193056 | 89 | 76 | 3.5 | 12.2 | 0.00 | 0.04 | 0.04 | 75 | 1016.3 |
| 20260504191558 | 89 | 86 | 4.3 | 13.0 | 0.00 | 0.04 | 0.04 | 74 | 1016.3 |
| 20260504190055 | 89 | 65 | 8.7 | 13.0 | 0.00 | 0.04 | 0.04 | 74 | 1016.6 |
| 20260504184554 | 89 | 63 | 7.8 | 12.2 | 0.00 | 0.04 | 0.04 | 74 | 1016.6 |
| 20260504183050 | 89 | 76 | 7.8 | 13.0 | 0.00 | 0.04 | 0.04 | 74 | 1016.9 |
| 20260504181550 | 89 | 82 | 6.1 | 12.2 | 0.00 | 0.04 | 0.04 | 74 | 1017.0 |
| 20260504180105 | 87 | 74 | 7.8 | 13.0 | 0.00 | 0.04 | 0.04 | 77 | 1017.0 |
| 20260504174548 | 86 | 60 | 3.5 | 13.0 | 0.00 | 0.04 | 0.04 | 79 | 1017.2 |
| 20260504173058 | 84 | 130 | 1.7 | 8.7 | 0.00 | 0.04 | 0.04 | 80 | 1017.5 |
| 20260504171548 | 83 | 159 | 3.5 | 8.7 | 0.00 | 0.04 | 0.04 | 80 | 1017.9 |